TimeAEDT,TemperatureF,Dew PointF,Humidity,Sea Level PressureIn,VisibilityMPH,Wind Direction,Wind SpeedMPH,Gust SpeedMPH,PrecipitationIn,Events,Conditions,WindDirDegrees,DateUTC
12:00 AM,53,45,67,30.29,,SE,4.6,,,,,130,2013-11-05 13:00:00
12:00 AM,53.6,44.6,72,30.27,6.2,SE,4.6,-,N/A,,Unknown,130,2013-11-05 13:00:00
12:30 AM,51.8,46.4,82,30.27,6.2,Calm,Calm,-,N/A,,Unknown,0,2013-11-05 13:30:00
1:00 AM,50.0,46.4,87,30.24,6.2,NNW,2.3,-,N/A,,Unknown,330,2013-11-05 14:00:00
1:30 AM,48.2,44.6,87,30.24,6.2,Calm,Calm,-,N/A,,Unknown,0,2013-11-05 14:30:00
2:00 AM,49,46,87,30.25,,WNW,6.9,,,,,290,2013-11-05 15:00:00
2:00 AM,50.0,46.4,87,30.24,6.2,WNW,6.9,-,N/A,,Unknown,290,2013-11-05 15:00:00
2:30 AM,50.0,48.2,94,30.24,6.2,West,4.6,-,N/A,,Unknown,270,2013-11-05 15:30:00
3:00 AM,50.0,48.2,94,30.24,6.2,West,3.5,-,N/A,,Unknown,270,2013-11-05 16:00:00
3:30 AM,50.0,48.2,94,30.21,6.2,WNW,4.6,-,N/A,,Unknown,300,2013-11-05 16:30:00
4:00 AM,48.2,46.4,93,30.21,6.2,NW,4.6,-,N/A,,Unknown,310,2013-11-05 17:00:00
4:30 AM,48.2,46.4,93,30.21,6.2,WNW,4.6,-,N/A,,Unknown,300,2013-11-05 17:30:00
5:00 AM,47,46,95,30.21,,WNW,5.8,,,,,300,2013-11-05 18:00:00
5:00 AM,46.4,46.4,100,30.21,6.2,WNW,5.8,-,N/A,,Unknown,300,2013-11-05 18:00:00
5:30 AM,46.4,44.6,93,30.21,6.2,WNW,5.8,-,N/A,,Unknown,300,2013-11-05 18:30:00
6:00 AM,47,46,93,30.23,12,WNW,4.6,,,Fog,Patches of Fog,290,2013-11-05 19:00:00
6:00 AM,46.4,46.4,100,30.21,6.2,WNW,4.6,-,N/A,Fog,Partly Cloudy,290,2013-11-05 19:00:00
6:30 AM,48.2,48.2,100,30.21,-9999.0,WNW,5.8,-,N/A,,Clear,300,2013-11-05 19:30:00
7:00 AM,51.8,50.0,94,30.24,-9999.0,NW,8.1,-,N/A,,Clear,310,2013-11-05 20:00:00
7:30 AM,55.4,51.8,88,30.24,-9999.0,NW,5.8,-,N/A,,Clear,320,2013-11-05 20:30:00
8:00 AM,59,50,64,30.25,,WNW,5.8,,,,,300,2013-11-05 21:00:00
8:00 AM,59.0,50.0,72,30.24,-9999.0,WNW,5.8,-,N/A,,Clear,300,2013-11-05 21:00:00
8:30 AM,62.6,50.0,63,30.24,-9999.0,NW,5.8,-,N/A,,Clear,310,2013-11-05 21:30:00
9:00 AM,65,51,50,30.25,16,West,2.3,,,,Haze,260,2013-11-05 22:00:00
9:00 AM,66.2,50.0,56,30.24,6.2,West,2.3,-,N/A,,Partly Cloudy,260,2013-11-05 22:00:00
9:30 AM,68.0,48.2,49,30.24,6.2,SE,6.9,-,N/A,,Partly Cloudy,130,2013-11-05 22:30:00
10:00 AM,68.0,48.2,49,30.21,6.2,SE,8.1,-,N/A,,Partly Cloudy,130,2013-11-05 23:00:00
10:30 AM,69.8,48.2,46,30.21,6.2,ESE,10.4,-,N/A,,Partly Cloudy,120,2013-11-05 23:30:00
11:00 AM,70,48,34,30.21,,SSE,10.4,,,,,150,2013-11-06 00:00:00
11:00 AM,69.8,48.2,46,30.18,-9999.0,SSE,10.4,-,N/A,,Clear,150,2013-11-06 00:00:00
11:30 AM,69.8,48.2,46,30.18,-9999.0,ESE,12.7,-,N/A,,Clear,110,2013-11-06 00:30:00
12:00 PM,70,49,35,30.17,19,SE,16.1,,,,Haze,140,2013-11-06 01:00:00
12:00 PM,69.8,48.2,46,30.15,-9999.0,SE,16.1,-,N/A,,Clear,140,2013-11-06 01:00:00
12:30 PM,71.6,50.0,46,30.15,-9999.0,SE,16.1,-,N/A,,Clear,130,2013-11-06 01:30:00
1:00 PM,73.4,50.0,44,30.12,-9999.0,SE,18.4,-,N/A,,Clear,140,2013-11-06 02:00:00
1:30 PM,73.4,50.0,44,30.12,-9999.0,ESE,18.4,-,N/A,,Clear,120,2013-11-06 02:30:00
2:00 PM,73,49,31,30.13,,ESE,17.3,,,,,110,2013-11-06 03:00:00
2:00 PM,73.4,48.2,41,30.12,-9999.0,ESE,17.3,-,N/A,,Clear,110,2013-11-06 03:00:00
2:30 PM,73.4,50.0,44,30.12,-9999.0,ESE,19.6,-,N/A,,Clear,110,2013-11-06 03:30:00
3:00 PM,71,49,35,30.11,19,ESE,19.6,,,,Haze,110,2013-11-06 04:00:00
3:00 PM,69.8,50.0,49,30.09,-9999.0,ESE,19.6,-,N/A,,Clear,110,2013-11-06 04:00:00
3:30 PM,69.8,50.0,49,30.09,-9999.0,East,18.4,-,N/A,,Clear,100,2013-11-06 04:30:00
4:00 PM,69.8,50.0,49,30.09,-9999.0,East,18.4,-,N/A,,Clear,100,2013-11-06 05:00:00
4:30 PM,69.8,53.6,56,30.06,-9999.0,East,18.4,-,N/A,,Clear,100,2013-11-06 05:30:00
5:00 PM,71,52,41,30.08,,East,17.3,,,,,100,2013-11-06 06:00:00
5:00 PM,71.6,51.8,50,30.06,-9999.0,East,17.3,-,N/A,,Clear,100,2013-11-06 06:00:00
5:30 PM,71.6,51.8,50,30.06,-9999.0,ENE,16.1,-,N/A,,Clear,70,2013-11-06 06:30:00
6:00 PM,70,51,39,30.08,,ENE,13.8,,,,,60,2013-11-06 07:00:00
6:00 PM,69.8,50.0,49,30.06,-9999.0,ENE,13.8,-,N/A,,Clear,60,2013-11-06 07:00:00
6:30 PM,68.0,51.8,56,30.06,-9999.0,ENE,16.1,-,N/A,,Clear,60,2013-11-06 07:30:00
7:00 PM,66.2,53.6,64,30.06,-9999.0,ENE,13.8,-,N/A,,Clear,60,2013-11-06 08:00:00
7:30 PM,66.2,53.6,64,30.06,-9999.0,ENE,13.8,-,N/A,,Clear,60,2013-11-06 08:30:00
8:00 PM,65,53,55,30.09,,ENE,11.5,,,,,60,2013-11-06 09:00:00
8:00 PM,64.4,53.6,68,30.06,6.2,ENE,11.5,-,N/A,,Unknown,60,2013-11-06 09:00:00
8:30 PM,64.4,53.6,68,30.06,6.2,ENE,8.1,-,N/A,,Unknown,60,2013-11-06 09:30:00
9:00 PM,64,53,58,30.09,,ENE,9.2,,,,,60,2013-11-06 10:00:00
9:00 PM,64.4,53.6,68,30.09,6.2,NE,9.2,-,N/A,,Unknown,50,2013-11-06 10:00:00
9:30 PM,62.6,51.8,68,30.09,6.2,NE,8.1,-,N/A,,Unknown,50,2013-11-06 10:30:00
10:00 PM,62.6,51.8,68,30.06,6.2,NE,10.4,-,N/A,,Unknown,50,2013-11-06 11:00:00
10:30 PM,62.6,51.8,68,30.06,6.2,ENE,8.1,-,N/A,,Unknown,60,2013-11-06 11:30:00
11:00 PM,62,52,62,30.09,,NE,6.9,,,,,50,2013-11-06 12:00:00
11:00 PM,62.6,51.8,68,30.06,6.2,NE,6.9,-,N/A,,Unknown,50,2013-11-06 12:00:00
11:30 PM,60.8,51.8,72,30.06,6.2,NE,5.8,-,N/A,,Unknown,50,2013-11-06 12:30:00